Retour au catalogue

STARLINK-6126

ActifCommunicationsVLEO
NORAD 56124·PAYLOAD·🇺🇸 United States

Lancé Mar 29, 2023 depuis Cape Canaveral Space Force Station

Loading…

Prochains Passages (prochaines 24 heures)

TLE

FraisSource: CelesTrak SupGP

Époque: Sep 15, 2026, 01:49 UTC

1 56124C 23046AH  26258.07618056  .00021322  00000+0  77250-3 0  2580
2 56124  42.9995 157.6014 0000934 247.3101  71.1283 15.27559189    11

Suivez STARLINK-6126 en temps réel avec AllMySat

Download on the App Store